Location: Dompnac
(44.5644°N, 4.1026°E)
Time: 10:56:15
(UTC+00:00)

Cosmos 2279 Rocket - Pass Details

Date: 19 September 2020
Orbit: 963 x 979 km, 82.9° (Epoch: 29 October)

Event Time Altitude Azimuth Distance (km) Brightness Sun altitude
Exits shadow 20:44:35 67° 25° (NNE) 1,060 4.1 -30.5°
Drops below altitude 10° 20:49:58 10° 10° (N) 2,741 6.6 -31.2°
Sets 20:52:30 0° 10° (N) 3,693 7.4 -31.6°
